Starlink 32792

operational
NORAD ID: 62504 Int'l Des: 2025-003 Owner: SPXS Country: US Constellation: starlink
LEOCIRCULAR

关于 Starlink 32792

正在加载描述...

实时位置

正在加载3D地球...

即将过境

高度历史

Altitude vs Time

uPlot chart will show altitude changes over time

两行轨道根数

1 62504U 25003T 25302.44036780 .00035901 00000-0 13061-2 0 9992
2 62504 43.0008 309.7694 0002002 279.3242 80.7383 15.27623627 46487
Epoch: Oct 29, 2025 • Age: 13 hours

当前状态

高度 485.7 km
速度 7.62 km/s
星下点 -15.95°S, 105.64°E
发射日期 Jan 6, 2025
运行时间 0.8 years
类型 internet

技术详情

分类 Payload
质量 730.00 kg
干质量 700.00 kg
总质量 730.00 kg
长度 0.30 m
直径 4.10 m
跨度 29.00 m
形状 Box + pan
制造商 SPXS
平台类型 Starlink V2M
阶段状态 In Orbit
所有者/国家 SPXS/US

大型星座

Loading constellations...